This demonstration page uses our WeatherBlox Daily Observations layout. Learn more.

Left ArrowRight Arrow

Hourly Observations for April 5, 2017

Temp ( °F °C ) Dew Point ( °F °C ) Humidity (%) Winds ( mph kmh ) Pressure ( in mb ) Visibility ( mi km ) Precip ( " mm )
12:53 am 00:53 Clear 56 13.3 46 7.8 70 70 NNW 6 9 30.02 1017 8 13 0.00 0.00
1:53 am 01:53 Clear 54 12.2 47 8.3 77 77 Calm 30.02 1017 10 16 0.00 0.00
2:53 am 02:53 Clear 53 11.7 46 7.8 77 77 NW 3 6 30.01 1016 10 16 0.00 0.00
3:53 am 03:53 Clear 52 11.1 47 8.3 83 83 Calm 30.00 1016 10 16 0.00 0.00
4:53 am 04:53 Clear 52 11.1 47 8.3 83 83 Calm 29.99 1016 10 16 0.00 0.00
5:53 am 05:53 Clear 51 10.6 47 8.3 86 86 Calm 30.00 1016 10 16 0.00 0.00
6:53 am 06:53 Sunny 50 10 48 8.9 93 93 Calm 29.99 1016 10 16 0.00 0.00
7:53 am 07:53 Sunny 53 11.7 47 8.3 80 80 VRB 3 6 30.02 1017 10 16 0.00 0.00
8:53 am 08:53 Sunny 57 13.9 49 9.4 74 74 E 6 9 30.02 1017 10 16 0.00 0.00
9:53 am 09:53 Sunny 62 16.7 47 8.3 58 58 E 3 6 30.01 1016 10 16 0.00 0.00
10:53 am 10:53 Sunny 63 17.2 46 7.8 54 54 Calm 30.00 1016 10 16 0.00 0.00
11:53 am 11:53 Sunny 65 18.3 47 8.3 52 52 SSW 7 11 29.99 1016 10 16 0.00 0.00
12:53 pm 12:53 Sunny 67 19.4 48 8.9 51 51 S 6 9 29.98 1015 10 16 0.00 0.00
1:53 pm 13:53 Sunny 67 19.4 49 9.4 53 53 S 7 11 29.96 1015 10 16 0.00 0.00
2:53 pm 14:53 Sunny 69 20.6 49 9.4 49 49 SSW 7 11 29.95 1014 10 16 0.00 0.00
3:53 pm 15:53 Sunny 69 20.6 46 7.8 44 44 WSW 9 15 29.93 1013 10 16 0.00 0.00
4:53 pm 16:53 Sunny 68 20 46 7.8 45 45 WSW 5 7 29.91 1013 10 16 0.00 0.00
5:53 pm 17:53 Cloudy 68 20 48 8.9 49 49 WSW 6 9 29.91 1013 10 16 0.00 0.00
6:53 pm 18:53 Mostly Cloudy 67 19.4 49 9.4 53 53 Calm 29.89 1012 10 16 0.00 0.00
7:53 pm 19:53 Clear 65 18.3 51 10.6 61 61 Calm 29.88 1012 10 16 0.00 0.00
8:53 pm 20:53 Partly Cloudy 64 17.8 50 10 60 60 Calm 29.88 1012 10 16 0.00 0.00
9:53 pm 21:53 Cloudy 64 17.8 47 8.3 54 54 Calm 29.88 1012 10 16 0.00 0.00
10:53 pm 22:53 Cloudy 64 17.8 42 5.6 45 45 SW 5 7 29.92 1013 10 16 0.00 0.00
11:53 pm 23:53 Cloudy 60 15.6 45 7.2 58 58 W 8 13 29.93 1013 10 16 0.00 0.03

Powered by AerisWeather